Location: Pian di Sc�
(43.6333°N, 11.5500°E)
Time: 14:06:42
(UTC+00:00)

Meteor 1-11 - Pass Details

Date: 07 August 2020
Orbit: 840 x 887 km, 81.2° (Epoch: 25 September)

Event Time Altitude Azimuth Distance (km) Brightness Sun altitude
Rises 03:23:24 0° 349° (N) 3,493 7.7 -8.3°
Reaches altitude 10° 03:25:52 10° 350° (N) 2,545 7.0 -7.9°
Maximum altitude 03:31:40 89° 82° (E) 879 4.3 -7.0°
Drops below altitude 10° 03:37:22 10° 171° (S) 2,497 6.5 -6.1°
Sets 03:39:46 0° 172° (S) 3,423 7.1 -5.7°
